Weather in Oktyabrskaya Gotnya

Russia / Belgorod Oblast     50°39′25″N   35°53′51″E
temp.,
°C
wind,
m/s
gust,
m/s
humid.,
%
clouds,
%
prec.,
mm/h
press.,
hPa
HPBL,
m
14 april, wed
wed1400:00+10s368270 0.0 1021332
03:00+8sse2387100 0.0 102152
06:00+8se2286100 0.0 102036
09:00+11se1272100 0.0 1019281
12:00+12n116870 0.1 1018386
15:00+16s1254100 0.1 10161323
18:00+14nw2266100 0.7 1015331
21:00+11wnw348699 2.9 1015172
15 april, thu
thu1500:00+10n248891 0.1 101484
03:00+9sw349353 0.2 101470
06:00+8ssw3592100 0.0 1014114
09:00+11s457395 0.0 1014463
12:00+14sse45525 0.0 10131413
15:00+14sse565959 0.1 10131257
18:00+13se4666100 0.4 1012576
21:00+10w0087100 2.9 101334
16 april, fri
fri1600:00+9se35905 0.7 1013110
03:00+7sse48925 0.7 1013211
06:00+6se37945 0.0 1014206
09:00+9sse687123 0.0 1015829
12:00+12sse685762 0.0 10151614
15:00+12s575688 0.1 10161563
18:00+10s4770100 0.0 1017606
21:00+8se117955 0.0 101735
17 april, sat
sat1700:00+8sse228391 0.1 101838
03:00+8ne1182100 0.1 101816
06:00+7ne1185100 0.0 101819
09:00+7n2291100 1.8 1018224
12:00+8wnw4683100 3.2 1019989
15:00+8wsw3681100 3.4 1019955
18:00+8sw3682100 0.3 1019679
21:00+7s2592100 0.9 1019278
18 april, sun
sun1800:00+7se4795100 5.8 1020447
03:00+7ese2492100 8.5 1020230
06:00+6ese359498 0.1 1021141
09:00+8e358198 0.4 1021356
12:00+11ene346386 0.3 10211010
15:00+13ene345097 1.4 10211597
18:00+12ene3563100 0.9 1021512
21:00+9ne5108495 1.4 1022345